User: anonymous   Login
Location: Brno
(49.2000°N, 16.6330°E)
Time: 11:22:34
(UTC+01:00)
Language:

BREEZE M DEB (TANK) - Orbit

View from above orbital plane
View from above orbital plane
View from above satellite
View from above satellite

Ground track
Ground track

The orbit data is extracted from the following two-line orbital elements,

1 28359U 04022B   17080.35036424 +.00001672 +00000-0 +23373-3 0  9995
2 28359 049.4923 134.4466 4666510 153.4434 241.0030 06.19842688279853
Epoch (UTC): 21 March 2017 08:24:31
Eccentricity: 0.4666510
inclination: 49.4923°
perigee height: 298 km
apogee height: 11982 km
right ascension of ascending node: 134.4466°
argument of perigee: 153.4434°
revolutions per day: 6.19842688
mean anomaly at epoch: 241.0030°
orbit number at epoch: 27985

The dashed part of the orbit path shows where the satellite is in the earth's shadow,  

DLR